Regional Weather Roundup
Issued by NWS

Home | Current Version | Previous Version | Graphics & Text | Print | Product List | Glossary On
Versions: 1 2 3 4 5 6 7 8 9 10 11 12 13 14 15 16 17 18 19 20 21 22 23 24 25 26 27 28 29 30 31 32 33 34 35 36 37 38 39 40 41 42 43 44 45 46 47 48 49 50
000
ASUS43 KFSD 021710
RWRSD

WEATHER ROUNDUP FOR SOUTH DAKOTA
NATIONAL WEATHER SERVICE SIOUX FALLS SD
1200 PM CDT WED SEP 02 2015

NOTE: "FAIR" INDICATES FEW OR NO CLOUDS BELOW 12,000 FEET WITH NO
SIGNIFICANT WEATHER AND/OR OBSTRUCTIONS TO VISIBILITY.


SDZ001>005-009-010-012>017-021800-
NORTHWEST AND NORTH CENTRAL SOUTH DAKOTA

CITY           SKY/WX    TMP DP  RH WIND       PRES   REMARKS
BUFFALO          N/A     87  50  27 S13       29.76F
FAITH            N/A     81  60  48 S13       29.81F
MOBRIDGE       MOSUNNY   78  71  79 E10       29.76F
$$

SDZ012>016-024>037-041>051-057-063-072>074-021800-
SOUTHWEST AND SOUTH CENTRAL SOUTH DAKOTA

CITY           SKY/WX    TMP DP  RH WIND       PRES   REMARKS
RAPID CTY ARPT MOSUNNY   86  52  30 CALM      29.85S
PIERRE         MOSUNNY   76  66  71 SE5       29.77S
CUSTER         MOSUNNY   80  42  25 W14       30.03S
ELLSWORTH AFB  MOSUNNY   86  50  28 VRB3      29.84F
PHILIP         MOSUNNY   82  60  47 CALM      29.80F
PINE RIDGE     MOSUNNY   86  49  27 SW6       29.90F
WINNER         FAIR      88  57  34 S7        29.81F
$$

SDZ004>011-016>023-039-040-021800-
NORTHEAST SOUTH DAKOTA

CITY           SKY/WX    TMP DP  RH WIND       PRES   REMARKS
ABERDEEN       SUNNY     82  70  66 SE8       29.79F
WATERTOWN      SUNNY     83  70  64 S9        29.83F
BROOKINGS      SUNNY     79  72  78 SE13      29.86S
SISSETON         N/A     81  68  64 S8        29.81F
$$

SDZ017-020-022-023-036>040-048>070-021800-
SOUTHEAST SOUTH DAKOTA

CITY           SKY/WX    TMP DP  RH WIND       PRES   REMARKS
SIOUX FALLS    MOSUNNY   81  72  74 S10       29.85F
HURON          SUNNY     82  70  66 S10G17    29.78F
CHAMBERLAIN    MOSUNNY   81  69  65 SE5       29.79S
MITCHELL       SUNNY     83  71  67 SE9       29.80F
YANKTON        SUNNY     82  72  69 SE12      29.81F
$$

ABBREVIATIONS USED IN REMARKS
   TC - TEMPERATURE IN CELSIUS
  WCI - WIND CHILL INDEX
   HX - HEAT INDEX
  VSB - VISIBILITY




USA.gov is the U.S. government's official web portal to all federal, state and local government web resources and services.